Regional Weather Roundup
Issued by NWS

Home | Current Version | Previous Version | Text Only | Print | Product List | Glossary Off
Versions: 1 2 3 4 5 6 7 8 9 10 11 12 13 14 15 16 17 18 19 20 21 22 23 24 25 26 27 28 29 30 31 32 33 34 35 36 37 38 39 40 41 42 43 44 45 46 47 48 49 50

000
ASUS45 KABQ 230310
RWRNM
WEATHER ROUNDUP FOR NEW MEXICO
NATIONAL WEATHER SERVICE ALBUQUERQUE NM
900 PM MDT WED OCT 22 2014

NOTE: "FAIR" MEANS FEW OR NO CLOUDS BELOW 12,000 FEET AGL WITH NO
       SIGNIFICANT WEATHER OR OBSTRUCTIONS TO VISION.

      THIS PRODUCT IS RELEASED AS TWO VERSIONS.  ONE VERSION NEAR
      THE TOP OF THE HOUR CONTAINING PRELIMINARY DATA FROM ALBUQUERQUE
      AND OTHER STATIONS.  A FINAL VERSION WITH ADDITIONAL DATA IS
      ISSUED ABOUT 10 MINUTES AFTER THE HOUR.

NMZ501-503-504-510>518-230400-
NORTHWEST PLATEAU/NORTHCENTRAL MOUNTAINS

CITY           SKY/WX    TMP DP  RH WIND       PRES   REMARKS
FARMINGTON     CLEAR     55  34  45 N3        30.18R
LOS ALAMOS     CLEAR     57  32  38 W5        30.27R
SANTA FE         N/A     54  38  54 NE5       30.21R
TAOS           PTCLDY    48  30  49 NE3       30.27R
ANGEL FIRE     FAIR      37  31  82 CALM      30.33R

$$
NMZ402-403-502-505>509-230400-
WESTCENTRAL MOUNTAINS/SOUTHWEST MOUNTAINS

CITY           SKY/WX    TMP DP  RH WIND       PRES   REMARKS
GALLUP         CLEAR     51  38  60 CALM      30.24R
GRANTS         CLEAR     46  36  66 NW9G18    30.26R
SILVER CITY    CLEAR     57  50  77 NW3       30.22R

$$
NMZ407-409-411-412-230400-
SOUTHERN DESERTS

CITY           SKY/WX    TMP DP  RH WIND       PRES   REMARKS
LORDSBURG      FAIR      61  48  63 MISG      30.13R
DEMING         CLEAR     60  52  74 S3        30.14R
LAS CRUCES     CLEAR     61  54  78 CALM      30.15S
HOLLOMAN AFB   CLEAR     63  52  66 SE5       30.12R
T OR C         CLEAR     64  49  57 SW3       30.15R

$$
NMZ519>523-230400-
CENTRAL VALLEYS/CENTRAL HIGHLANDS

CITY           SKY/WX    TMP DP  RH WIND       PRES   REMARKS
ALBUQUERQUE    PTCLDY    61  41  47 SE6       30.17R
DOUBLE EAGLE   CLEAR     55  43  62 SW8       30.19R
MORIARTY ARPT  FAIR      53  40  60 W3        30.22R
CLINES CORNERS CLEAR     51  35  54 W6        30.23S
BELEN          NOT AVBL
SOCORRO        FAIR      62  48  60 SE5       30.15R

$$
NMZ524>526-539-540-230400-
SOUTHCENTRAL MOUNTAINS

CITY           SKY/WX    TMP DP  RH WIND       PRES   REMARKS
RUIDOSO        CLEAR     55  45  67 S3        30.27R

$$
NMZ527>531-230400-
NORTHEAST HIGHLANDS/NORTHEAST PLAINS

CITY           SKY/WX    TMP DP  RH WIND       PRES   REMARKS
LAS VEGAS      CLEAR     51  32  48 W3        30.22R
RATON          PTCLDY    54  40  59 N6        30.18R
CLAYTON        PTCLDY    59  43  55 NE5       30.13R

$$
NMZ532>537-230400-
EASTCENTRAL PLAINS

CITY           SKY/WX    TMP DP  RH WIND       PRES   REMARKS
TUCUMCARI      CLEAR     63  53  70 S8        30.07R
CANNON AFB     CLEAR     58  53  85 SE6       30.14R
CLOVIS AIRPORT CLEAR     57  54  88 S9        30.16R

$$
NMZ028-029-538-230400-
SOUTHEAST PLAINS

CITY           SKY/WX    TMP DP  RH WIND       PRES   REMARKS
ROSWELL        CLEAR     61  58  90 S7        30.10R
CARLSBAD       CLEAR     63  59  87 S8        30.10R
HOBBS          CLEAR     59  59 100 SE5       30.14S


$$



USA.gov is the U.S. government's official web portal to all federal, state and local government web resources and services.